GFSNIL_925_temp_000.txt.gz
Temp
16 15 14 13 12 10 9 9 9 8 8 8 7 7 7 7 7 7 7 7 8 8
16 14 12 11 10 9 8 8 8 7 7 7 7 7 7 6 6 6 6 6 7 7
12 11 10 9 8 8 8 7 7 6 6 6 6 6 6 6 6 6 6 6 6 6
9 9 8 8 7 7 6 6 6 6 6 5 5 5 5 5 5 5 5 5 5 5
8 8 7 7 7 6 6 5 6 5 5 5 5 5 5 5 5 5 5 5 5 5
8 7 7 6 5 5 5 5 5 5 5 5 4 4 4 4 4 4 4 4 3 3
8 7 7 6 5 5 5 5 5 4 4 4 3 3 3 3 3 3 3 3 2 2
7 6 5 6 5 5 5 4 4 4 3 3 3 3 3 3 2 1 0 -0 -1 -1
5 6 6 5 5 5 4 4 4 3 3 3 2 2 2 1 -0 -1 -2 -2 -2 -3
4 6 6 5 5 4 4 4 3 2 2 2 1 1 -0 -1 -2 -3 -3 -3 -3 -3
6 6 5 5 4 4 3 2 2 2 1 0 -1 -2 -2 -3 -3 -4 -4 -4 -4 -4
6 5 4 4 3 3 2 1 1 1 -0 -2 -2 -3 -3 -4 -4 -4 -4 -4 -4 -4
5 4 4 3 2 2 1 1 0 -1 -2 -3 -3 -3 -4 -3 -4 -3 -3 -3 -3 -3
4 4 3 2 1 1 1 -0 -1 -2 -3 -3 -3 -3 -3 -3 -4 -4 -4 -4 -4 -3

GFSNIL_925_temp_006.txt.gz
Temp
16 15 15 14 12 11 10 9 8 6 6 5 5 5 4 4 4 5 6 7 7 6
15 14 14 12 10 9 7 7 6 6 5 4 4 5 4 6 6 6 6 6 6 6
12 12 11 10 8 7 6 6 6 5 4 4 4 5 5 6 6 6 5 5 5 5
10 9 9 8 7 7 6 7 7 6 5 5 5 5 5 5 5 4 4 4 4 4
9 8 8 7 6 6 6 6 6 5 5 5 5 5 4 4 4 4 3 3 3 3
7 7 7 6 6 6 6 5 5 5 5 5 5 4 4 4 3 3 3 2 2 1
6 6 6 5 5 5 5 5 5 5 5 4 4 3 3 2 2 1 1 0 0 0
5 5 5 5 4 3 5 5 5 4 4 3 2 2 1 1 -0 -1 -1 -1 -2 -2
5 4 4 3 3 4 5 4 3 3 2 2 1 1 -0 -1 -2 -2 -3 -3 -4 -4
4 3 4 4 4 4 3 3 2 2 1 1 0 -1 -1 -2 -3 -3 -4 -4 -4 -4
4 3 4 3 3 3 2 2 1 1 0 -1 -1 -2 -3 -3 -4 -4 -4 -4 -4 -5
3 3 3 3 2 1 1 0 -0 -1 -2 -3 -3 -3 -4 -4 -5 -5 -5 -5 -5 -5
3 2 2 1 1 0 -0 -1 -2 -2 -3 -3 -4 -4 -5 -5 -5 -5 -6 -5 -5 -5
1 1 0 0 -0 -1 -1 -2 -3 -3 -4 -4 -5 -5 -5 -5 -5 -6 -6 -6 -5 -5

GFSNIL_925_temp_009.txt.gz
Temp
14 14 14 13 13 12 9 7 7 6 5 4 4 3 3 3 3 3 3 4 4 4
12 12 13 12 12 9 7 5 5 5 5 5 5 4 3 2 1 3 4 4 4 4
11 10 10 10 10 8 6 6 6 7 6 5 5 5 4 4 5 4 4 4 4 4
10 8 8 8 7 6 6 6 6 7 6 5 5 5 5 4 4 4 4 3 3 3
9 7 7 7 6 6 6 6 6 5 5 5 5 5 4 4 4 3 3 3 2 2
8 6 6 6 5 6 6 5 5 5 5 5 4 4 3 3 3 2 2 1 1 1
6 5 5 5 4 4 4 4 5 5 4 4 3 3 2 2 1 1 0 -1 -1 -1
4 4 4 3 3 3 3 4 4 3 3 3 2 2 1 0 -1 -1 -2 -1 -2 -2
3 2 2 2 2 2 1 1 2 2 2 1 1 -0 -1 -1 -2 -3 -3 -3 -4 -4
3 3 3 2 2 2 2 2 1 1 -0 -0 -1 -1 -2 -3 -3 -3 -4 -5 -5 -5
3 3 3 3 2 1 1 0 -0 -1 -1 -2 -2 -3 -3 -4 -4 -5 -5 -5 -5 -5
3 3 2 1 1 0 -1 -1 -2 -2 -3 -3 -3 -4 -4 -5 -5 -5 -5 -5 -6 -6
2 1 0 -0 -1 -1 -2 -2 -3 -3 -3 -4 -4 -5 -5 -5 -5 -6 -6 -6 -6 -6
0 -0 -1 -1 -2 -2 -2 -3 -3 -4 -4 -5 -5 -5 -5 -6 -6 -6 -6 -6 -6 -5

GFSNIL_925_temp_012.txt.gz
Temp
11 10 10 11 11 10 9 7 5 5 4 4 4 4 3 3 2 1 0 0 -0 0
10 10 10 10 10 8 7 5 5 5 6 6 6 5 4 2 1 1 1 1 1 1
9 9 9 8 8 6 5 5 6 6 6 6 5 6 4 3 2 2 2 2 2 3
8 8 7 6 6 5 5 6 6 6 6 5 5 5 4 4 4 4 3 3 3 3
7 6 5 4 4 4 5 5 5 5 5 4 5 5 4 4 3 3 3 2 2 2
6 5 4 4 4 4 4 4 4 3 4 4 3 3 3 2 2 2 1 1 0 -0
4 4 3 3 3 3 3 3 2 1 2 2 2 2 1 1 1 0 -0 -1 -1 -2
3 2 2 2 2 3 3 1 1 1 1 2 1 1 0 -0 -1 -1 -1 -2 -2 -3
3 3 2 2 2 2 2 2 1 1 0 0 -0 -1 -2 -2 -3 -3 -3 -4 -4 -5
3 3 3 3 3 2 1 1 0 -0 -1 -1 -2 -3 -3 -3 -4 -4 -5 -5 -5 -6
3 2 2 1 1 0 0 -0 -1 -2 -2 -3 -3 -3 -4 -5 -5 -5 -5 -5 -5 -6
2 1 1 0 -0 -1 -1 -2 -2 -3 -4 -4 -4 -4 -5 -5 -6 -6 -6 -6 -6 -6
1 0 -1 -1 -2 -2 -3 -3 -4 -4 -4 -5 -5 -5 -5 -6 -6 -6 -6 -6 -6 -6
-0 -1 -2 -2 -2 -3 -3 -4 -4 -4 -5 -5 -5 -5 -6 -6 -6 -6 -6 -6 -6 -6